ETH122 FYWH-FBSK

Flight info

Callsign ETH122
Flight time 1h 10m
Altitude 41000
Route EGMAS1B EGMAS DCT USUNO DCT EGROS DCT UTSET DCT UNBIS DULTO2C
Aircraft A35K/H-SDE2E3GHIJ3J4J5LM1ORWXY/LB1D1

Departure

Time 2026-04-29 05:36
Airport Hosea Kutako International Airport (FYWH)

Arrival

Time 2026-04-29 06:46
Airport Sir Seretse Khama International Airport (FBSK)
Time Latitude Longitude Altitude Speed Heading
2026-04-29 05:09 -22.48642 17.46173 5622 ft 0 kts 159°
2026-04-29 05:24 -22.48634 17.46169 5622 ft 2 kts 160°
2026-04-29 05:24 -22.48616 17.46165 5618 ft 3 kts 178°
2026-04-29 05:24 -22.48598 17.46167 5622 ft 3 kts 197°
2026-04-29 05:25 -22.48581 17.46174 5621 ft 3 kts 215°
2026-04-29 05:25 -22.48568 17.46188 5615 ft 3 kts 233°
2026-04-29 05:25 -22.48561 17.46199 5617 ft 0 kts 246°
2026-04-29 05:29 -22.48562 17.46197 5618 ft 3 kts 246°
2026-04-29 05:29 -22.48567 17.46179 5615 ft 0 kts 253°
2026-04-29 05:29 -22.48574 17.46145 5621 ft 10 kts 257°
2026-04-29 05:30 -22.48589 17.46072 5619 ft 10 kts 255°
2026-04-29 05:30 -22.48616 17.45999 5624 ft 7 kts 244°
2026-04-29 05:30 -22.48616 17.45998 5624 ft 0 kts 244°
2026-04-29 05:31 -22.48637 17.45951 5625 ft 15 kts 244°
2026-04-29 05:31 -22.48683 17.45852 5626 ft 14 kts 243°
2026-04-29 05:31 -22.48723 17.45764 5628 ft 13 kts 243°
2026-04-29 05:31 -22.48761 17.45681 5630 ft 12 kts 243°
2026-04-29 05:32 -22.48793 17.45602 5633 ft 11 kts 259°
2026-04-29 05:32 -22.48764 17.45542 5633 ft 10 kts 327°
2026-04-29 05:32 -22.48737 17.45486 5634 ft 8 kts 266°
2026-04-29 05:32 -22.48757 17.45436 5636 ft 8 kts 243°
2026-04-29 05:33 -22.48787 17.45370 5638 ft 13 kts 243°
2026-04-29 05:33 -22.48827 17.45282 5641 ft 13 kts 243°
2026-04-29 05:33 -22.48864 17.45202 5640 ft 11 kts 244°
2026-04-29 05:33 -22.48904 17.45128 5645 ft 14 kts 228°
2026-04-29 05:34 -22.49007 17.45091 5649 ft 16 kts 196°
2026-04-29 05:34 -22.49035 17.45014 5650 ft 10 kts 296°
2026-04-29 05:34 -22.48968 17.44999 5650 ft 13 kts 30°
2026-04-29 05:34 -22.48939 17.45044 5648 ft 1 kts 63°
2026-04-29 05:35 -22.48910 17.45105 5646 ft 32 kts 63°
2026-04-29 05:35 -22.48705 17.45550 5632 ft 98 kts 63°
2026-04-29 05:35 -22.48318 17.46387 5611 ft 152 kts 63°
2026-04-29 05:35 -22.47795 17.47513 5982 ft 164 kts 63°
2026-04-29 05:36 -22.47280 17.48624 6612 ft 167 kts 64°
2026-04-29 05:36 -22.46737 17.49805 6994 ft 187 kts 64°
2026-04-29 05:36 -22.46138 17.51173 7280 ft 215 kts 68°
2026-04-29 05:36 -22.45973 17.52837 7704 ft 232 kts 103°
2026-04-29 05:37 -22.46808 17.54350 8250 ft 246 kts 139°
2026-04-29 05:37 -22.48373 17.55293 8649 ft 270 kts 159°
2026-04-29 05:37 -22.50167 17.56033 9415 ft 281 kts 160°
2026-04-29 05:37 -22.52007 17.56801 10337 ft 288 kts 159°
2026-04-29 05:38 -22.53937 17.57637 10829 ft 311 kts 158°
2026-04-29 05:38 -22.56018 17.58560 11296 ft 333 kts 158°
2026-04-29 05:38 -22.58188 17.59536 12075 ft 342 kts 158°
2026-04-29 05:38 -22.60399 17.60537 12962 ft 347 kts 158°
2026-04-29 05:39 -22.62647 17.61556 13808 ft 353 kts 158°
2026-04-29 05:39 -22.64896 17.62579 14669 ft 358 kts 158°
2026-04-29 05:39 -22.67142 17.63784 15482 ft 363 kts 147°
2026-04-29 05:39 -22.69028 17.65623 16293 ft 368 kts 129°
2026-04-29 05:40 -22.70500 17.67909 17096 ft 373 kts 123°
2026-04-29 05:40 -22.71907 17.70299 17860 ft 378 kts 123°
2026-04-29 05:40 -22.73329 17.72714 18628 ft 382 kts 123°
2026-04-29 05:40 -22.74777 17.75154 19388 ft 387 kts 123°
2026-04-29 05:41 -22.76241 17.77613 20160 ft 391 kts 123°
2026-04-29 05:41 -22.77735 17.80115 20934 ft 396 kts 123°
2026-04-29 05:41 -22.79238 17.82631 21650 ft 401 kts 123°
2026-04-29 05:41 -22.80766 17.85189 22366 ft 405 kts 123°
2026-04-29 05:42 -22.82306 17.87766 23064 ft 410 kts 123°
2026-04-29 05:42 -22.83863 17.90372 23749 ft 414 kts 123°
2026-04-29 05:42 -22.85442 17.93017 24415 ft 418 kts 123°
2026-04-29 05:42 -22.87028 17.95673 25054 ft 422 kts 123°
2026-04-29 05:43 -22.88611 17.98328 25662 ft 427 kts 123°
2026-04-29 05:43 -22.90231 18.01045 26263 ft 431 kts 123°
2026-04-29 05:43 -22.91866 18.03789 26874 ft 435 kts 123°
2026-04-29 05:43 -22.93516 18.06559 27434 ft 439 kts 123°
2026-04-29 05:44 -22.95181 18.09355 27996 ft 443 kts 123°
2026-04-29 05:44 -22.96858 18.12174 28552 ft 447 kts 123°
2026-04-29 05:44 -22.98531 18.15042 29084 ft 451 kts 121°
2026-04-29 05:44 -22.99916 18.18108 29591 ft 455 kts 111°
2026-04-29 05:45 -23.00963 18.21365 30092 ft 459 kts 108°
2026-04-29 05:45 -23.01908 18.24694 30583 ft 462 kts 107°
2026-04-29 05:45 -23.02808 18.28059 31051 ft 466 kts 106°
2026-04-29 05:45 -23.03697 18.31449 31495 ft 469 kts 106°
2026-04-29 05:46 -23.04584 18.34821 31914 ft 472 kts 106°
2026-04-29 05:46 -23.05500 18.38270 32341 ft 476 kts 106°
2026-04-29 05:46 -23.06429 18.41733 32752 ft 479 kts 107°
2026-04-29 05:46 -23.07365 18.45197 33141 ft 482 kts 107°
2026-04-29 05:47 -23.08317 18.48708 33533 ft 484 kts 107°
2026-04-29 05:47 -23.09271 18.52223 33894 ft 487 kts 107°
2026-04-29 05:47 -23.10229 18.55757 34242 ft 490 kts 107°
2026-04-29 05:47 -23.11194 18.59318 34583 ft 492 kts 107°
2026-04-29 05:48 -23.12163 18.62900 34976 ft 493 kts 107°
2026-04-29 05:48 -23.13116 18.66426 35458 ft 491 kts 107°
2026-04-29 05:48 -23.14076 18.69987 35912 ft 490 kts 107°
2026-04-29 05:48 -23.15035 18.73545 36330 ft 490 kts 107°
2026-04-29 05:49 -23.15993 18.77103 36703 ft 489 kts 107°
2026-04-29 05:49 -23.16950 18.80662 37061 ft 490 kts 107°
2026-04-29 05:49 -23.17904 18.84213 37411 ft 490 kts 107°
2026-04-29 05:49 -23.18859 18.87771 37747 ft 490 kts 107°
2026-04-29 05:50 -23.19813 18.91325 38072 ft 490 kts 106°
2026-04-29 05:50 -23.20766 18.94884 38389 ft 490 kts 106°
2026-04-29 05:50 -23.21717 18.98438 38692 ft 490 kts 106°
2026-04-29 05:50 -23.22656 19.01950 38981 ft 490 kts 106°
2026-04-29 05:51 -23.23618 19.05550 39266 ft 490 kts 106°
2026-04-29 05:51 -23.24557 19.09068 39543 ft 490 kts 106°
2026-04-29 05:51 -23.25505 19.12623 39809 ft 490 kts 106°
2026-04-29 05:51 -23.26453 19.16183 40061 ft 490 kts 106°
2026-04-29 05:52 -23.27401 19.19747 40315 ft 490 kts 106°
2026-04-29 05:52 -23.28348 19.23308 40559 ft 490 kts 106°
2026-04-29 05:52 -23.29293 19.26868 40790 ft 490 kts 106°
2026-04-29 05:52 -23.30240 19.30438 40972 ft 491 kts 106°
2026-04-29 05:53 -23.32150 19.37646 40999 ft 496 kts 106°
2026-04-29 05:53 -23.34050 19.44836 41003 ft 495 kts 106°
2026-04-29 05:54 -23.35939 19.51996 41000 ft 495 kts 106°
2026-04-29 05:54 -23.37838 19.59208 41000 ft 495 kts 106°
2026-04-29 05:55 -23.39731 19.66412 41000 ft 495 kts 106°
2026-04-29 05:55 -23.41621 19.73619 41002 ft 495 kts 106°
2026-04-29 05:56 -23.43499 19.80796 40999 ft 495 kts 106°
2026-04-29 05:56 -23.45382 19.88006 41000 ft 495 kts 106°
2026-04-29 05:57 -23.47262 19.95219 41000 ft 495 kts 106°
2026-04-29 05:57 -23.48891 20.02511 41000 ft 495 kts 101°
2026-04-29 05:58 -23.50137 20.09889 40998 ft 495 kts 100°
2026-04-29 05:58 -23.51318 20.17256 41001 ft 495 kts 100°
2026-04-29 05:59 -23.52500 20.24659 40999 ft 495 kts 100°
2026-04-29 05:59 -23.53485 20.30806 41003 ft 495 kts 100°
2026-04-29 06:00 -23.54669 20.38190 41001 ft 495 kts 100°
2026-04-29 06:00 -23.55855 20.45603 41000 ft 495 kts 100°
2026-04-29 06:01 -23.57035 20.53006 40998 ft 495 kts 100°
2026-04-29 06:01 -23.58203 20.60354 41001 ft 495 kts 100°
2026-04-29 06:02 -23.59376 20.67763 40999 ft 495 kts 100°
2026-04-29 06:02 -23.60546 20.75171 41003 ft 495 kts 100°
2026-04-29 06:03 -23.61712 20.82585 40998 ft 495 kts 100°
2026-04-29 06:03 -23.62875 20.89992 41001 ft 495 kts 100°
2026-04-29 06:04 -23.64033 20.97399 40999 ft 495 kts 100°
2026-04-29 06:04 -23.65188 21.04807 41001 ft 495 kts 100°
2026-04-29 06:05 -23.66338 21.12210 41000 ft 495 kts 100°
2026-04-29 06:05 -23.67485 21.19616 41000 ft 495 kts 99°
2026-04-29 06:06 -23.68629 21.27029 41000 ft 495 kts 99°
2026-04-29 06:06 -23.69763 21.34397 41001 ft 495 kts 99°
2026-04-29 06:07 -23.70900 21.41812 40999 ft 495 kts 99°
2026-04-29 06:07 -23.72033 21.49223 40999 ft 495 kts 99°
2026-04-29 06:08 -23.73164 21.56646 40999 ft 495 kts 99°
2026-04-29 06:08 -23.74289 21.64060 41002 ft 495 kts 99°
2026-04-29 06:09 -23.75412 21.71480 40999 ft 495 kts 99°
2026-04-29 06:09 -23.76524 21.78846 41002 ft 495 kts 99°
2026-04-29 06:10 -23.77640 21.86273 41001 ft 495 kts 99°
2026-04-29 06:10 -23.78756 21.93722 41002 ft 495 kts 99°
2026-04-29 06:11 -23.79865 22.01145 41002 ft 495 kts 99°
2026-04-29 06:11 -23.80963 22.08524 40998 ft 495 kts 99°
2026-04-29 06:12 -23.82064 22.15947 41003 ft 495 kts 99°
2026-04-29 06:12 -23.83163 22.23380 41000 ft 495 kts 99°
2026-04-29 06:13 -23.84258 22.30812 41000 ft 495 kts 99°
2026-04-29 06:13 -23.85348 22.38237 41001 ft 495 kts 99°
2026-04-29 06:14 -23.86437 22.45678 40999 ft 495 kts 99°
2026-04-29 06:14 -23.87520 22.53103 41000 ft 495 kts 99°
2026-04-29 06:15 -23.88592 22.60486 40998 ft 495 kts 99°
2026-04-29 06:15 -23.89672 22.67945 40998 ft 495 kts 99°
2026-04-29 06:16 -23.90743 22.75367 41001 ft 495 kts 99°
2026-04-29 06:16 -23.92271 22.82703 41003 ft 495 kts 105°
2026-04-29 06:17 -23.94106 22.89964 41001 ft 495 kts 106°
2026-04-29 06:17 -23.95981 22.97215 40998 ft 495 kts 106°
2026-04-29 06:18 -23.97848 23.04466 41001 ft 495 kts 106°
2026-04-29 06:18 -23.99691 23.11671 41000 ft 495 kts 106°
2026-04-29 06:19 -24.01539 23.18929 40998 ft 495 kts 105°
2026-04-29 06:19 -24.03383 23.26183 41001 ft 495 kts 105°
2026-04-29 06:20 -24.05224 23.33441 40999 ft 495 kts 105°
2026-04-29 06:20 -24.07062 23.40704 40999 ft 495 kts 105°
2026-04-29 06:21 -24.08900 23.47977 41001 ft 495 kts 105°
2026-04-29 06:21 -24.09815 23.51606 40843 ft 493 kts 105°
2026-04-29 06:21 -24.10714 23.55176 40204 ft 493 kts 105°
2026-04-29 06:22 -24.11627 23.58804 39334 ft 490 kts 105°
2026-04-29 06:22 -24.12529 23.62393 38224 ft 488 kts 105°
2026-04-29 06:22 -24.13416 23.65925 37592 ft 474 kts 105°
2026-04-29 06:22 -24.14277 23.69361 36979 ft 463 kts 105°
2026-04-29 06:23 -24.15129 23.72762 36342 ft 465 kts 105°
2026-04-29 06:23 -24.15986 23.76183 35711 ft 466 kts 105°
2026-04-29 06:23 -24.16840 23.79599 35226 ft 464 kts 105°
2026-04-29 06:23 -24.17679 23.82957 34743 ft 461 kts 105°
2026-04-29 06:24 -24.18522 23.86336 34241 ft 459 kts 105°
2026-04-29 06:24 -24.19364 23.89710 33738 ft 456 kts 105°
2026-04-29 06:24 -24.20197 23.93055 33272 ft 453 kts 105°
2026-04-29 06:24 -24.21027 23.96386 32774 ft 451 kts 105°
2026-04-29 06:25 -24.21848 23.99685 32289 ft 448 kts 105°
2026-04-29 06:25 -24.22663 24.02965 31807 ft 446 kts 105°
2026-04-29 06:25 -24.23463 24.06188 31336 ft 443 kts 105°
2026-04-29 06:25 -24.24279 24.09478 30856 ft 440 kts 105°
2026-04-29 06:26 -24.25069 24.12664 30396 ft 438 kts 105°
2026-04-29 06:26 -24.25863 24.15873 29920 ft 435 kts 105°
2026-04-29 06:26 -24.26650 24.19053 29453 ft 432 kts 105°
2026-04-29 06:26 -24.27436 24.22233 28995 ft 429 kts 105°
2026-04-29 06:27 -24.28214 24.25385 28522 ft 427 kts 105°
2026-04-29 06:27 -24.28987 24.28517 28065 ft 424 kts 105°
2026-04-29 06:27 -24.29753 24.31627 27605 ft 421 kts 105°
2026-04-29 06:27 -24.30515 24.34721 27146 ft 419 kts 105°
2026-04-29 06:28 -24.31269 24.37789 26681 ft 416 kts 105°
2026-04-29 06:28 -24.32020 24.40844 26235 ft 413 kts 105°
2026-04-29 06:28 -24.32763 24.43871 25782 ft 410 kts 105°
2026-04-29 06:28 -24.33501 24.46880 25324 ft 407 kts 105°
2026-04-29 06:29 -24.34234 24.49871 24878 ft 404 kts 105°
2026-04-29 06:29 -24.34960 24.52838 24417 ft 401 kts 105°
2026-04-29 06:29 -24.35680 24.55782 23951 ft 398 kts 105°
2026-04-29 06:29 -24.36395 24.58708 23507 ft 396 kts 105°
2026-04-29 06:30 -24.37104 24.61611 23059 ft 392 kts 105°
2026-04-29 06:30 -24.38646 24.67264 22172 ft 385 kts 114°
2026-04-29 06:30 -24.39780 24.69908 21735 ft 382 kts 117°
2026-04-29 06:31 -24.40965 24.72496 21299 ft 379 kts 117°
2026-04-29 06:31 -24.42153 24.75083 20852 ft 376 kts 117°
2026-04-29 06:31 -24.43318 24.77633 20413 ft 373 kts 117°
2026-04-29 06:31 -24.44474 24.80169 19981 ft 369 kts 117°
2026-04-29 06:32 -24.45616 24.82680 19552 ft 366 kts 117°
2026-04-29 06:32 -24.46736 24.85145 19128 ft 363 kts 117°
2026-04-29 06:32 -24.47872 24.87650 18688 ft 360 kts 117°
2026-04-29 06:32 -24.48969 24.90068 18268 ft 357 kts 117°
2026-04-29 06:33 -24.50070 24.92500 17859 ft 354 kts 117°
2026-04-29 06:33 -24.51162 24.94912 17443 ft 351 kts 117°
2026-04-29 06:33 -24.52244 24.97301 17026 ft 348 kts 117°
2026-04-29 06:33 -24.53315 24.99670 16599 ft 345 kts 117°
2026-04-29 06:34 -24.54376 25.02017 16206 ft 342 kts 117°
2026-04-29 06:34 -24.55428 25.04345 15800 ft 338 kts 117°
2026-04-29 06:34 -24.56468 25.06650 15391 ft 336 kts 117°
2026-04-29 06:34 -24.57502 25.08939 15002 ft 333 kts 117°
2026-04-29 06:35 -24.58526 25.11209 14598 ft 331 kts 117°
2026-04-29 06:35 -24.59551 25.13482 14198 ft 330 kts 117°
2026-04-29 06:35 -24.60561 25.15723 13794 ft 328 kts 117°
2026-04-29 06:35 -24.61571 25.17965 13410 ft 326 kts 117°
2026-04-29 06:36 -24.62560 25.20196 13005 ft 324 kts 115°
2026-04-29 06:36 -24.63250 25.22541 12632 ft 322 kts 102°
2026-04-29 06:36 -24.63637 25.24963 12232 ft 321 kts 99°
2026-04-29 06:36 -24.63974 25.27344 11847 ft 319 kts 99°
2026-04-29 06:37 -24.64317 25.29745 11456 ft 317 kts 99°
2026-04-29 06:37 -24.64661 25.32135 11069 ft 315 kts 99°
2026-04-29 06:37 -24.65006 25.34506 10765 ft 309 kts 99°
2026-04-29 06:37 -24.65340 25.36797 10636 ft 297 kts 99°
2026-04-29 06:38 -24.65662 25.39001 10527 ft 285 kts 99°
2026-04-29 06:38 -24.65970 25.41112 10354 ft 277 kts 99°
2026-04-29 06:38 -24.66273 25.43189 10051 ft 274 kts 99°
2026-04-29 06:38 -24.66577 25.45266 9769 ft 282 kts 99°
2026-04-29 06:39 -24.66892 25.47418 9666 ft 291 kts 99°
2026-04-29 06:39 -24.67212 25.49611 9354 ft 289 kts 99°
2026-04-29 06:39 -24.67531 25.51799 8863 ft 292 kts 99°
2026-04-29 06:39 -24.67851 25.54004 8486 ft 289 kts 99°
2026-04-29 06:40 -24.68163 25.56150 8318 ft 279 kts 99°
2026-04-29 06:40 -24.68461 25.58206 8185 ft 267 kts 99°
2026-04-29 06:40 -24.68751 25.60209 7925 ft 263 kts 99°
2026-04-29 06:40 -24.69032 25.62185 7646 ft 261 kts 98°
2026-04-29 06:41 -24.69009 25.64171 7367 ft 261 kts 77°
2026-04-29 06:41 -24.68335 25.66013 7094 ft 260 kts 61°
2026-04-29 06:41 -24.67431 25.67731 6873 ft 259 kts 60°
2026-04-29 06:41 -24.66545 25.69464 6960 ft 265 kts 61°
2026-04-29 06:42 -24.65681 25.71194 6991 ft 249 kts 62°
2026-04-29 06:42 -24.64883 25.72806 6922 ft 239 kts 62°
2026-04-29 06:42 -24.64100 25.74412 6616 ft 238 kts 62°
2026-04-29 06:42 -24.63310 25.76027 6256 ft 240 kts 62°
2026-04-29 06:43 -24.62519 25.77633 5931 ft 237 kts 62°
2026-04-29 06:43 -24.61756 25.79186 5618 ft 224 kts 62°
2026-04-29 06:43 -24.61037 25.80649 5310 ft 210 kts 62°
2026-04-29 06:43 -24.60366 25.82015 5030 ft 195 kts 62°
2026-04-29 06:44 -24.59745 25.83277 4785 ft 180 kts 62°
2026-04-29 06:44 -24.59172 25.84442 4558 ft 168 kts 62°
2026-04-29 06:44 -24.58636 25.85532 4333 ft 156 kts 62°
2026-04-29 06:44 -24.58135 25.86555 4100 ft 149 kts 62°
2026-04-29 06:45 -24.57662 25.87533 3978 ft 147 kts 62°
2026-04-29 06:45 -24.57161 25.88539 3749 ft 148 kts 62°
2026-04-29 06:45 -24.56682 25.89518 3553 ft 147 kts 62°
2026-04-29 06:45 -24.56196 25.90504 3361 ft 147 kts 62°
2026-04-29 06:46 -24.55733 25.91440 3302 ft 119 kts 61°
2026-04-29 06:46 -24.55478 25.91952 3303 ft 37 kts 61°
2026-04-29 06:46 -24.55426 25.92058 3303 ft 2 kts 62°
2026-04-29 06:46 -24.55418 25.92088 3303 ft 8 kts 89°
2026-04-29 06:47 -24.55462 25.92141 3302 ft 11 kts 150°
2026-04-29 06:47 -24.55524 25.92179 3301 ft 0 kts 150°
2026-04-29 06:47 -24.55533 25.92185 3301 ft 3 kts 150°
2026-04-29 06:47 -24.55552 25.92196 3300 ft 6 kts 150°
2026-04-29 06:48 -24.55596 25.92225 3300 ft 8 kts 140°
2026-04-29 06:48 -24.55652 25.92300 3300 ft 11 kts 150°
2026-04-29 06:48 -24.55683 25.92319 3300 ft 0 kts 150°